Location: NJAA Observatory
(40.6819°N, 74.8979°W)
Time: 20:46:10
(UTC-04:00)

Vanguard 1 - All Passes

Search period start: 24 April 2014 00:00
Search period end: 04 May 2014 00:00
Orbit: 648 x 3839 km, 34.3° (Epoch: 19 April)

Date Brightness Start Highest point End Pass type
(mag) Time Alt. Az. Time Alt. Az. Time Alt. Az.
24 Apr - 09:56:42 10° SSW 10:04:47 40° SE 10:18:48 10° E daylight
24 Apr - 12:15:06 10° WSW 12:26:39 68° S 12:47:12 10° E daylight
24 Apr - 14:35:49 10° W 14:51:26 65° SSW 15:14:29 10° ESE daylight
24 Apr - 16:58:51 10° W 17:16:47 42° SW 17:37:21 10° SSE daylight
24 Apr - 19:29:28 10° W 19:40:13 15° SW 19:50:48 10° SSW daylight
25 Apr - 08:03:25 10° SSE 08:06:56 13° SE 08:11:14 10° ESE daylight
25 Apr - 10:17:31 10° SW 10:25:59 48° SSE 10:41:13 10° E daylight
25 Apr - 12:36:31 10° WSW 12:48:27 69° S 13:09:29 10° E daylight
25 Apr - 14:57:30 10° W 15:13:22 60° SSW 15:36:07 10° SE daylight
25 Apr - 17:21:15 10° W 17:38:21 35° SW 17:57:33 10° SSE daylight
26 Apr - 08:22:25 10° S 08:27:39 20° SE 08:35:05 10° E daylight
26 Apr - 10:38:34 10° SW 10:47:20 55° SSE 11:03:34 10° E daylight
26 Apr - 12:57:59 10° W 13:10:19 69° S 13:31:40 10° ESE daylight
26 Apr - 15:19:16 10° W 15:35:14 54° SSW 15:57:29 10° SE daylight
26 Apr - 17:44:05 10° W 17:59:49 28° SW 18:17:08 10° S daylight
27 Apr - 08:42:28 10° SSW 08:48:30 27° SE 08:57:58 10° E daylight
27 Apr - 10:59:45 10° WSW 11:08:51 61° SSE 11:25:52 10° E daylight
27 Apr - 13:19:31 10° W 13:32:12 66° S 13:53:44 10° ESE daylight
27 Apr - 15:41:08 10° W 15:57:02 47° SSW 16:18:31 10° SE daylight
27 Apr - 18:07:43 10° W 18:21:13 21° SW 18:35:47 10° S daylight
28 Apr - 09:02:59 10° SSW 09:09:30 35° SE 09:20:28 10° E daylight
28 Apr - 11:21:02 10° WSW 11:30:28 65° S 11:48:09 10° E daylight
28 Apr - 13:41:04 10° W 13:54:04 62° SSW 14:15:38 10° ESE daylight
28 Apr - 16:03:12 10° W 16:18:46 40° SSW 16:39:08 10° SSE daylight
28 Apr - 18:33:07 10° WSW 18:42:36 14° SW 18:52:33 10° SSW daylight
29 Apr - 09:23:48 10° SW 09:30:39 44° SSE 09:42:48 10° E daylight
29 Apr - 11:42:24 10° WSW 11:52:09 67° S 12:10:23 10° E daylight
29 Apr - 14:02:41 10° W 14:15:56 56° SSW 14:37:17 10° SE daylight
29 Apr - 16:25:33 10° W 16:40:27 32° SW 16:59:14 10° SSE daylight
30 Apr - 07:29:02 10° S 07:32:46 16° SE 07:37:36 10° E daylight
30 Apr - 09:44:50 10° SW 09:51:58 52° SSE 10:05:02 10° E daylight
30 Apr - 12:03:49 10° W 12:13:54 66° S 12:32:34 10° ESE daylight
30 Apr - 14:24:23 10° W 14:37:46 50° SSW 14:58:38 10° SE daylight
30 Apr - 16:48:24 10° W 17:02:04 25° SW 17:18:39 10° S daylight
01 May - 07:48:56 10° SSW 07:53:39 23° SE 08:00:30 10° E daylight
01 May - 10:06:00 10° WSW 10:13:24 58° SSE 10:27:15 10° E daylight
01 May - 12:25:17 10° W 12:35:40 63° S 12:54:36 10° ESE daylight
01 May - 14:46:12 10° W 14:59:34 43° SSW 15:19:37 10° SE daylight
01 May - 17:12:11 10° WSW 17:23:39 19° SW 17:36:57 10° S daylight
02 May - 08:09:26 10° SSW 08:14:40 31° SSE 08:22:56 10° E daylight
02 May - 10:27:16 10° WSW 10:34:56 61° S 10:49:26 10° E daylight
02 May - 12:46:48 10° W 12:57:27 58° SSW 13:16:28 10° ESE daylight
02 May - 15:08:14 10° W 15:21:20 36° SSW 15:40:10 10° SSE daylight
02 May - 17:38:21 10° WSW 17:45:14 13° SW 17:52:42 10° SSW daylight
03 May - 08:30:15 10° SW 08:35:49 39° SSE 08:45:08 10° E daylight
03 May - 10:48:36 10° WSW 10:56:33 63° S 11:11:35 10° ESE daylight
03 May - 13:08:22 10° W 13:19:14 52° SSW 13:38:04 10° SE daylight
03 May - 15:30:37 10° W 15:43:05 29° SW 16:00:08 10° SSE daylight
